|
NORAD ID: 15267 Int'l Code: 1984-096A
Perigee: 4,548.8 km
Apogee: 35,877.7 km
Inclination: 66.5 °
Period: 718.9 minutes
Semi major axis: 26584 km
Launch date: September 7, 1984
Source: Commonwealth of Independent States (former USSR) (CIS)
Two Line Element Set (TLE):
1 15267U 84096A 13144.89638711 .00000290 00000-0 84784+0 0 9423
2 15267 066.4700 096.5276 5892369 124.9227 355.1363 02.00292924210368
Source:
NASA's NSSDC Master Catalog entry for COSMOS 1596
|